SCP
0 0 0 0 0 0 0 1 1 1 1 1 2 2 3 4 4 4 6 4 4 4 3 2 1 1 1 0 0 0 0 0 0 0 0 0 0 0 0 0 0 0 0
0 0 0 0 0 0 0 1 1 1 1 1 2 2 2 3 4 4 4 4 3 3 2 1 1 1 1 1 0 0 0 0 0 0 0 0 0 0 0 0 0 0 0
0 0 0 0 0 0 0 1 1 1 1 1 1 2 3 4 4 4 3 3 2 2 1 1 1 1 1 0 0 0 0 0 0 0 0 0 0 0 0 0 0 0 0
0 0 0 0 0 0 0 1 1 1 1 1 1 2 3 3 3 3 3 2 2 2 1 1 1 0 0 0 0 0 0 0 0 0 0 0 0 0 0 0 0 0 0
0 0 0 0 0 0 0 1 1 1 1 1 2 2 3 2 3 3 3 3 2 2 1 1 1 0 0 0 0 0 0 0 0 0 0 0 0 0 0 0 0 0 0
0 0 0 0 0 0 0 1 1 1 1 1 3 2 2 2 2 3 3 3 2 2 1 0 1 0 0 0 0 0 0 0 0 0 0 0 0 0 0 0 0 0 0
0 0 0 0 0 0 1 1 0 2 3 3 3 3 3 3 1 2 2 3 2 1 1 0 0 0 0 0 0 0 0 0 0 0 0 0 0 0 0 0 0 0 0
0 0 0 -0 -0 0 1 0 1 3 4 5 5 4 3 3 0 0 1 2 1 1 0 0 0 0 0 0 0 0 0 0 0 0 -0 0 0 0 0 0 0 0 0
0 0 0 0 0 0 1 0 2 3 4 5 3 3 4 1 0 0 1 1 1 0 0 0 0 0 0 0 0 0 0 0 0 0 0 0 0 0 0 0 0 0 0
0 0 0 0 0 1 1 2 3 3 4 4 4 3 2 1 0 0 0 1 0 0 0 0 0 0 0 0 0 0 0 0 0 0 0 0 0 0 0 0 0 0 0
0 -0 0 0 1 1 2 3 3 4 4 4 4 4 2 1 0 0 0 0 0 0 0 0 0 0 0 0 0 0 0 0 0 0 0 0 0 0 0 0 0 0 0
0 0 0 1 2 2 2 3 3 3 3 3 3 3 2 0 0 0 0 0 0 0 0 0 0 0 0 0 0 0 0 0 0 0 0 0 0 0 0 0 0 0 0
0 0 0 1 2 3 2 3 3 3 3 2 2 2 1 0 0 0 0 0 0 0 0 0 0 0 0 0 0 0 0 0 0 0 0 0 0 0 0 0 0 0 0
0 0 0 0 1 1 2 2 2 3 3 2 1 1 0 0 0 0 0 0 0 0 0 0 0 0 0 0 0 0 0 0 0 0 0 0 0 0 0 0 0 0 0
0 0 0 0 0 1 1 1 1 1 1 0 0 0 0 0 0 0 0 0 0 0 0 0 0 0 0 0 0 0 0 0 0 0 0 0 0 0 0 0 0 0 0
0 0 0 0 0 0 0 0 0 0 0 0 0 0 0 -0 -0 0 0 0 -0 0 0 0 0 0 0 0 0 0 0 0 0 0 0 0 0 0 0 0 0 0 0
0 0 0 0 0 0 0 0 0 0 -0 0 0 0 0 0 0 0 0 0 0 0 0 0 0 0 0 0 0 0 0 0 0 0 0 0 0 0 0 0 0 0 0
0 0 0 0 0 0 0 0 0 0 0 0 0 0 0 0 0 -0 0 0 0 0 0 0 0 0 0 0 0 0 0 0 0 0 0 0 0 0 0 0 0 0 0
0 0 0 0 0 0 0 0 0 0 0 0 0 0 0 0 0 0 0 0 0 0 0 0 0 0 0 0 0 0 0 0 0 0 0 0 0 0 0 0 0 0 0
0 0 0 0 0 0 0 0 0 0 0 0 0 0 0 0 0 0 0 0 0 0 0 0 0 0 0 0 0 0 0 0 0 0 0 0 0 0 0 0 0 0 0
0 0 0 0 0 0 0 0 0 0 0 0 0 0 0 0 0 0 0 0 0 0 0 0 0 0 0 0 0 0 0 0 0 0 0 0 0 0 0 0 0 0 0
0 0 0 0 0 0 0 0 0 0 0 0 0 0 0 0 0 0 0 0 0 0 0 0 0 0 0 0 0 0 0 0 0 0 0 0 0 0 0 0 0 0 0
0 0 0 0 0 0 0 0 0 0 0 0 0 0 0 0 0 0 0 0 0 0 0 -0 -0 -0 -0 -0 0 0 0 0 0 0 0 0 0 0 0 0 0 0 0
0 0 0 0 0 0 0 0 0 0 0 0 0 0 0 0 0 0 0 0 0 0 0 0 0 -0 -0 0 0 0 0 0 0 0 0 0 0 0 0 0 0 0 0
0 0 0 0 0 0 0 0 0 0 0 0 0 0 0 0 0 0 0 0 0 0 0 0 0 -0 -0 -0 -0 -0 -0 0 0 0 0 0 0 0 0 0 0 0 0
0 0 0 0 0 0 0 0 0 0 0 0 0 0 0 0 0 0 0 0 0 0 0 0 -0 -0 -0 -0 -0 -0 -0 -0 -0 -0 -0 -0 -0 -0 0 0 -0 0 0
Wind_Speed_500mb
53 53 53 52 52 52 56 64 74 72 61 56 55 55 60 59 60 57 49 41 40 39 41 41 37 34 26 26 27 25 22 21 23 17 15 21 17 19 20 24 20 22 28
60 58 58 56 56 56 58 61 69 66 58 57 56 56 59 59 60 55 50 43 43 43 46 46 35 30 31 29 26 25 22 23 22 19 21 21 22 21 20 25 19 20 21
59 59 61 60 60 63 65 62 65 59 57 58 60 62 62 62 58 52 46 44 45 42 43 39 33 33 31 28 27 24 23 22 22 19 17 20 24 20 23 22 23 25 26
53 61 65 64 63 63 64 60 62 61 59 62 65 66 64 60 56 51 48 47 43 43 41 36 34 33 32 31 27 26 24 24 24 21 18 18 23 24 24 25 24 23 23
58 64 64 62 64 65 69 60 64 63 62 62 65 66 62 60 56 54 52 48 47 44 40 34 33 32 36 33 25 24 26 25 24 21 20 19 23 27 27 26 25 26 26
61 65 64 62 63 66 70 60 63 64 64 63 71 68 64 58 60 63 55 51 50 44 37 34 34 39 35 32 32 31 28 25 25 24 21 19 21 26 29 29 30 32 29
61 64 62 61 67 69 64 60 64 69 72 75 73 67 63 59 64 61 58 52 48 40 36 37 34 32 34 29 27 27 27 28 29 25 21 18 19 23 33 34 30 32 24
64 62 61 78 67 63 55 63 68 73 80 78 74 68 63 65 61 63 60 46 42 39 38 40 38 34 32 27 24 26 24 27 31 24 18 19 15 22 25 34 33 35 28
81 76 73 69 55 53 58 66 72 73 74 71 66 68 71 65 70 73 64 47 38 34 36 38 34 31 30 29 27 28 25 28 33 30 26 20 20 20 23 32 38 29 31
80 85 88 61 50 59 66 70 73 75 76 68 71 68 70 71 83 67 58 48 42 36 34 34 35 30 27 29 33 30 29 26 29 30 26 24 26 23 22 28 29 28 33
76 89 78 60 61 72 79 73 73 76 77 78 76 69 65 81 74 69 55 43 43 39 33 28 30 31 28 31 38 28 25 29 27 24 24 22 27 27 29 32 30 32 31
77 85 70 57 63 67 70 72 76 84 85 82 75 70 80 69 60 57 53 41 41 39 34 30 30 33 30 31 35 30 27 22 21 21 23 28 29 28 30 38 34 30 32
75 61 37 37 62 67 76 80 80 81 80 79 87 87 78 70 66 57 50 47 42 35 32 34 32 31 29 32 31 28 26 23 26 24 26 27 26 25 29 34 35 30 34
59 37 16 20 51 62 68 75 80 78 77 77 79 77 73 70 63 59 54 49 42 38 37 36 29 28 31 30 32 32 27 25 24 19 17 20 24 28 33 37 34 31 34
39 17 19 42 59 69 66 59 58 70 81 81 69 59 59 54 52 53 50 40 37 38 38 35 30 27 26 32 35 32 28 27 23 26 20 23 29 34 34 34 30 30 34
23 7 37 54 73 73 72 72 67 69 63 55 54 49 47 48 54 49 46 45 42 40 34 30 27 25 23 31 32 34 31 27 21 18 22 21 32 37 37 37 36 33 28
12 17 42 66 58 63 62 72 83 68 58 54 56 50 50 45 47 43 40 36 38 38 30 27 23 23 24 26 33 32 33 27 23 19 16 18 29 36 41 41 39 36 31
14 10 63 48 56 55 55 56 59 64 62 59 47 42 44 47 43 39 39 39 44 38 28 27 23 20 19 24 29 29 35 35 30 21 18 15 19 31 36 36 38 39 40
26 28 54 51 55 56 55 53 58 56 65 59 59 54 48 43 39 35 34 35 35 32 26 22 20 19 20 26 30 30 28 30 31 24 18 16 18 20 23 32 35 34 33
37 46 64 56 56 54 55 55 65 64 66 62 58 58 53 45 41 36 36 29 22 20 17 16 17 18 23 23 26 30 28 28 29 32 20 17 18 23 25 27 25 25 26
42 47 49 50 50 51 58 53 54 56 53 49 56 54 47 35 33 29 26 24 22 17 15 13 12 13 17 18 19 23 31 31 30 26 24 17 12 19 21 24 25 26 27
67 59 56 55 54 52 51 52 52 53 56 62 60 50 39 38 37 36 32 28 24 23 23 19 15 17 18 20 18 20 24 27 30 24 21 19 14 11 13 18 21 27 28
61 57 57 57 53 59 59 54 56 63 65 63 56 52 43 41 38 38 36 28 21 20 17 16 17 21 21 21 24 21 22 22 24 20 17 21 17 14 17 17 14 13 20
63 61 57 55 58 59 56 58 61 65 66 66 61 48 44 41 41 34 27 25 25 23 21 20 20 21 22 24 23 24 25 20 19 18 18 21 22 16 16 16 15 19 24
55 54 57 59 53 54 63 69 70 71 67 60 50 47 49 46 39 34 33 31 30 26 24 24 21 21 20 17 20 22 22 21 20 19 19 23 22 18 19 18 15 15 17
55 61 65 61 60 66 68 72 71 68 63 55 50 51 51 48 43 35 36 35 32 29 26 30 30 26 23 18 15 17 20 18 17 18 17 19 19 21 21 19 17 17 17
Wind_Direction_500mb
290 288 285 280 276 274 268 260 249 246 242 231 223 222 216 208 210 209 210 204 206 201 202 206 212 213 216 228 231 230 229 230 238 218 220 237 236 216 227 210 213 208 213
289 283 281 278 273 275 267 262 249 242 238 225 218 209 203 205 207 207 205 200 197 198 207 212 209 213 214 216 223 220 222 226 226 232 221 235 233 222 218 223 217 202 185
284 279 281 278 274 271 270 260 249 240 232 220 213 205 198 202 201 200 195 196 194 201 199 199 204 208 212 217 212 221 219 224 235 234 223 223 227 207 205 209 202 211 205
280 279 278 274 272 269 269 261 249 232 225 216 208 202 196 194 193 188 191 191 192 193 195 195 203 210 210 210 208 211 214 220 223 217 203 209 215 199 202 206 201 199 207
282 281 273 273 274 270 268 256 241 225 218 211 200 195 190 188 188 187 187 187 185 189 192 197 204 204 206 204 205 213 217 215 219 205 196 198 204 199 201 194 201 201 201
281 282 273 274 275 267 265 247 229 217 208 198 193 189 185 186 193 189 185 183 185 185 189 194 203 207 207 211 206 214 211 211 212 211 198 200 214 212 203 206 202 193 194
283 281 275 281 278 261 250 233 216 208 198 191 188 184 183 181 197 195 193 180 182 186 187 187 193 198 206 212 214 220 218 208 201 202 202 204 208 209 210 204 199 190 212
282 278 280 293 269 250 234 218 206 199 191 186 183 181 178 190 189 182 183 179 181 189 190 190 191 201 202 198 206 209 207 211 201 198 212 206 209 221 219 208 207 208 210
282 283 289 284 266 235 218 204 198 190 184 183 180 178 179 185 176 178 178 178 180 181 186 196 194 195 204 206 197 192 192 202 205 209 216 217 219 213 207 202 200 195 192
286 290 294 280 241 223 198 192 185 181 178 174 174 172 185 174 173 176 169 172 173 176 182 188 190 192 203 207 186 188 192 201 203 211 218 221 212 214 204 203 201 198 198
286 292 294 258 230 197 188 183 173 170 170 166 167 174 173 171 166 171 173 174 179 178 187 186 199 203 199 191 179 188 195 204 205 199 202 198 202 211 205 197 201 207 209
280 287 263 190 175 174 175 169 166 163 160 159 159 152 158 162 165 168 177 175 185 182 187 186 196 191 189 183 186 195 197 205 186 182 190 199 205 216 210 199 209 206 209
300 336 41 133 152 156 158 155 156 158 152 150 153 154 157 161 166 170 175 183 186 183 181 184 183 183 183 186 190 187 190 185 185 188 201 215 219 219 202 196 206 206 191
314 342 26 127 144 156 161 160 155 155 152 150 153 154 159 166 171 174 181 186 188 191 181 177 180 184 175 189 187 186 186 185 186 189 205 204 203 198 193 195 203 207 201
314 326 142 143 150 147 146 150 149 153 161 152 151 157 162 167 172 176 178 177 174 179 177 179 181 189 188 191 189 191 185 188 189 188 208 205 195 195 198 199 205 202 209
309 300 153 146 141 137 134 134 137 139 141 147 152 161 165 172 178 179 180 176 180 175 170 172 179 183 179 191 191 191 191 186 183 189 197 190 199 197 200 202 208 212 216
261 169 163 144 133 137 138 139 139 140 148 150 154 166 168 170 168 169 169 169 167 177 175 175 178 176 187 192 192 196 195 193 199 185 190 194 205 203 208 209 214 220 214
235 211 150 144 140 138 138 137 135 136 146 147 151 151 157 157 159 165 167 170 172 174 175 181 180 184 183 192 193 198 201 206 200 190 196 199 204 209 212 215 219 223 227
215 174 149 142 140 141 141 138 137 137 148 145 140 143 145 148 147 152 160 171 180 184 187 185 191 191 192 196 201 198 204 203 199 196 192 201 199 200 208 214 224 228 230
195 174 156 147 140 139 139 142 149 148 146 145 147 149 145 145 145 148 149 147 153 156 164 167 174 184 204 206 208 209 201 201 197 195 190 208 215 215 221 213 217 217 206
187 169 149 145 145 139 145 141 143 144 141 142 148 145 143 140 143 145 147 155 153 148 158 148 154 187 202 200 195 204 199 201 206 206 208 214 210 207 215 206 211 212 216
157 154 150 150 147 143 142 142 141 142 146 147 147 147 144 141 150 158 159 155 155 162 168 172 179 183 174 176 173 177 178 187 189 198 199 196 201 197 195 214 227 228 219
151 149 146 142 139 137 138 138 143 147 147 145 142 138 149 160 161 153 151 150 156 160 159 152 150 152 157 167 166 167 167 167 173 185 202 188 190 202 209 213 224 235 229
145 143 136 133 134 134 134 132 141 148 147 146 149 156 162 158 153 152 154 148 151 155 156 160 157 164 155 158 170 177 178 178 184 190 189 192 215 225 226 223 229 231 236
137 137 137 133 134 134 141 146 149 152 154 155 155 155 156 155 152 150 146 144 143 156 146 150 155 163 165 185 191 192 195 199 210 208 209 216 220 216 211 220 230 226 229
131 138 146 147 138 146 151 152 154 156 156 159 161 155 151 147 147 146 143 141 138 132 130 135 136 130 134 140 152 169 173 184 196 204 206 205 203 217 224 229 235 243 254
Wind_Speed_850mb
53 53 53 52 52 52 56 64 74 72 61 56 55 55 60 59 60 57 49 41 40 39 41 41 37 34 26 26 27 25 22 21 23 17 15 21 17 19 20 24 20 22 28
60 58 58 56 56 56 58 61 69 66 58 57 56 56 59 59 60 55 50 43 43 43 46 46 35 30 31 29 26 25 22 23 22 19 21 21 22 21 20 25 19 20 21
59 59 61 60 60 63 65 62 65 59 57 58 60 62 62 62 58 52 46 44 45 42 43 39 33 33 31 28 27 24 23 22 22 19 17 20 24 20 23 22 23 25 26
53 61 65 64 63 63 64 60 62 61 59 62 65 66 64 60 56 51 48 47 43 43 41 36 34 33 32 31 27 26 24 24 24 21 18 18 23 24 24 25 24 23 23
58 64 64 62 64 65 69 60 64 63 62 62 65 66 62 60 56 54 52 48 47 44 40 34 33 32 36 33 25 24 26 25 24 21 20 19 23 27 27 26 25 26 26
61 65 64 62 63 66 70 60 63 64 64 63 71 68 64 58 60 63 55 51 50 44 37 34 34 39 35 32 32 31 28 25 25 24 21 19 21 26 29 29 30 32 29
61 64 62 61 67 69 64 60 64 69 72 75 73 67 63 59 64 61 58 52 48 40 36 37 34 32 34 29 27 27 27 28 29 25 21 18 19 23 33 34 30 32 24
64 62 61 78 67 63 55 63 68 73 80 78 74 68 63 65 61 63 60 46 42 39 38 40 38 34 32 27 24 26 24 27 31 24 18 19 15 22 25 34 33 35 28
81 76 73 69 55 53 58 66 72 73 74 71 66 68 71 65 70 73 64 47 38 34 36 38 34 31 30 29 27 28 25 28 33 30 26 20 20 20 23 32 38 29 31
80 85 88 61 50 59 66 70 73 75 76 68 71 68 70 71 83 67 58 48 42 36 34 34 35 30 27 29 33 30 29 26 29 30 26 24 26 23 22 28 29 28 33
76 89 78 60 61 72 79 73 73 76 77 78 76 69 65 81 74 69 55 43 43 39 33 28 30 31 28 31 38 28 25 29 27 24 24 22 27 27 29 32 30 32 31
77 85 70 57 63 67 70 72 76 84 85 82 75 70 80 69 60 57 53 41 41 39 34 30 30 33 30 31 35 30 27 22 21 21 23 28 29 28 30 38 34 30 32
75 61 37 37 62 67 76 80 80 81 80 79 87 87 78 70 66 57 50 47 42 35 32 34 32 31 29 32 31 28 26 23 26 24 26 27 26 25 29 34 35 30 34
59 37 16 20 51 62 68 75 80 78 77 77 79 77 73 70 63 59 54 49 42 38 37 36 29 28 31 30 32 32 27 25 24 19 17 20 24 28 33 37 34 31 34
39 17 19 42 59 69 66 59 58 70 81 81 69 59 59 54 52 53 50 40 37 38 38 35 30 27 26 32 35 32 28 27 23 26 20 23 29 34 34 34 30 30 34
23 7 37 54 73 73 72 72 67 69 63 55 54 49 47 48 54 49 46 45 42 40 34 30 27 25 23 31 32 34 31 27 21 18 22 21 32 37 37 37 36 33 28
12 17 42 66 58 63 62 72 83 68 58 54 56 50 50 45 47 43 40 36 38 38 30 27 23 23 24 26 33 32 33 27 23 19 16 18 29 36 41 41 39 36 31
14 10 63 48 56 55 55 56 59 64 62 59 47 42 44 47 43 39 39 39 44 38 28 27 23 20 19 24 29 29 35 35 30 21 18 15 19 31 36 36 38 39 40
26 28 54 51 55 56 55 53 58 56 65 59 59 54 48 43 39 35 34 35 35 32 26 22 20 19 20 26 30 30 28 30 31 24 18 16 18 20 23 32 35 34 33
37 46 64 56 56 54 55 55 65 64 66 62 58 58 53 45 41 36 36 29 22 20 17 16 17 18 23 23 26 30 28 28 29 32 20 17 18 23 25 27 25 25 26
42 47 49 50 50 51 58 53 54 56 53 49 56 54 47 35 33 29 26 24 22 17 15 13 12 13 17 18 19 23 31 31 30 26 24 17 12 19 21 24 25 26 27
67 59 56 55 54 52 51 52 52 53 56 62 60 50 39 38 37 36 32 28 24 23 23 19 15 17 18 20 18 20 24 27 30 24 21 19 14 11 13 18 21 27 28
61 57 57 57 53 59 59 54 56 63 65 63 56 52 43 41 38 38 36 28 21 20 17 16 17 21 21 21 24 21 22 22 24 20 17 21 17 14 17 17 14 13 20
63 61 57 55 58 59 56 58 61 65 66 66 61 48 44 41 41 34 27 25 25 23 21 20 20 21 22 24 23 24 25 20 19 18 18 21 22 16 16 16 15 19 24
55 54 57 59 53 54 63 69 70 71 67 60 50 47 49 46 39 34 33 31 30 26 24 24 21 21 20 17 20 22 22 21 20 19 19 23 22 18 19 18 15 15 17
55 61 65 61 60 66 68 72 71 68 63 55 50 51 51 48 43 35 36 35 32 29 26 30 30 26 23 18 15 17 20 18 17 18 17 19 19 21 21 19 17 17 17
Wind_Direction_850mb
290 288 285 280 276 274 268 260 249 246 242 231 223 222 216 208 210 209 210 204 206 201 202 206 212 213 216 228 231 230 229 230 238 218 220 237 236 216 227 210 213 208 213
289 283 281 278 273 275 267 262 249 242 238 225 218 209 203 205 207 207 205 200 197 198 207 212 209 213 214 216 223 220 222 226 226 232 221 235 233 222 218 223 217 202 185
284 279 281 278 274 271 270 260 249 240 232 220 213 205 198 202 201 200 195 196 194 201 199 199 204 208 212 217 212 221 219 224 235 234 223 223 227 207 205 209 202 211 205
280 279 278 274 272 269 269 261 249 232 225 216 208 202 196 194 193 188 191 191 192 193 195 195 203 210 210 210 208 211 214 220 223 217 203 209 215 199 202 206 201 199 207
282 281 273 273 274 270 268 256 241 225 218 211 200 195 190 188 188 187 187 187 185 189 192 197 204 204 206 204 205 213 217 215 219 205 196 198 204 199 201 194 201 201 201
281 282 273 274 275 267 265 247 229 217 208 198 193 189 185 186 193 189 185 183 185 185 189 194 203 207 207 211 206 214 211 211 212 211 198 200 214 212 203 206 202 193 194
283 281 275 281 278 261 250 233 216 208 198 191 188 184 183 181 197 195 193 180 182 186 187 187 193 198 206 212 214 220 218 208 201 202 202 204 208 209 210 204 199 190 212
282 278 280 293 269 250 234 218 206 199 191 186 183 181 178 190 189 182 183 179 181 189 190 190 191 201 202 198 206 209 207 211 201 198 212 206 209 221 219 208 207 208 210
282 283 289 284 266 235 218 204 198 190 184 183 180 178 179 185 176 178 178 178 180 181 186 196 194 195 204 206 197 192 192 202 205 209 216 217 219 213 207 202 200 195 192
286 290 294 280 241 223 198 192 185 181 178 174 174 172 185 174 173 176 169 172 173 176 182 188 190 192 203 207 186 188 192 201 203 211 218 221 212 214 204 203 201 198 198
286 292 294 258 230 197 188 183 173 170 170 166 167 174 173 171 166 171 173 174 179 178 187 186 199 203 199 191 179 188 195 204 205 199 202 198 202 211 205 197 201 207 209
280 287 263 190 175 174 175 169 166 163 160 159 159 152 158 162 165 168 177 175 185 182 187 186 196 191 189 183 186 195 197 205 186 182 190 199 205 216 210 199 209 206 209
300 336 41 133 152 156 158 155 156 158 152 150 153 154 157 161 166 170 175 183 186 183 181 184 183 183 183 186 190 187 190 185 185 188 201 215 219 219 202 196 206 206 191
314 342 26 127 144 156 161 160 155 155 152 150 153 154 159 166 171 174 181 186 188 191 181 177 180 184 175 189 187 186 186 185 186 189 205 204 203 198 193 195 203 207 201
314 326 142 143 150 147 146 150 149 153 161 152 151 157 162 167 172 176 178 177 174 179 177 179 181 189 188 191 189 191 185 188 189 188 208 205 195 195 198 199 205 202 209
309 300 153 146 141 137 134 134 137 139 141 147 152 161 165 172 178 179 180 176 180 175 170 172 179 183 179 191 191 191 191 186 183 189 197 190 199 197 200 202 208 212 216
261 169 163 144 133 137 138 139 139 140 148 150 154 166 168 170 168 169 169 169 167 177 175 175 178 176 187 192 192 196 195 193 199 185 190 194 205 203 208 209 214 220 214
235 211 150 144 140 138 138 137 135 136 146 147 151 151 157 157 159 165 167 170 172 174 175 181 180 184 183 192 193 198 201 206 200 190 196 199 204 209 212 215 219 223 227
215 174 149 142 140 141 141 138 137 137 148 145 140 143 145 148 147 152 160 171 180 184 187 185 191 191 192 196 201 198 204 203 199 196 192 201 199 200 208 214 224 228 230
195 174 156 147 140 139 139 142 149 148 146 145 147 149 145 145 145 148 149 147 153 156 164 167 174 184 204 206 208 209 201 201 197 195 190 208 215 215 221 213 217 217 206
187 169 149 145 145 139 145 141 143 144 141 142 148 145 143 140 143 145 147 155 153 148 158 148 154 187 202 200 195 204 199 201 206 206 208 214 210 207 215 206 211 212 216
157 154 150 150 147 143 142 142 141 142 146 147 147 147 144 141 150 158 159 155 155 162 168 172 179 183 174 176 173 177 178 187 189 198 199 196 201 197 195 214 227 228 219
151 149 146 142 139 137 138 138 143 147 147 145 142 138 149 160 161 153 151 150 156 160 159 152 150 152 157 167 166 167 167 167 173 185 202 188 190 202 209 213 224 235 229
145 143 136 133 134 134 134 132 141 148 147 146 149 156 162 158 153 152 154 148 151 155 156 160 157 164 155 158 170 177 178 178 184 190 189 192 215 225 226 223 229 231 236
137 137 137 133 134 134 141 146 149 152 154 155 155 155 156 155 152 150 146 144 143 156 146 150 155 163 165 185 191 192 195 199 210 208 209 216 220 216 211 220 230 226 229
131 138 146 147 138 146 151 152 154 156 156 159 161 155 151 147 147 146 143 141 138 132 130 135 136 130 134 140 152 169 173 184 196 204 206 205 203 217 224 229 235 243 254